Wind_Speed
11 11 11 12 10 10 10 10 11 10 8 5 4 4 5 5 7 8 9 8 10 13 16 17 21 27 29 28 27 26 25 24 25 25 25 24 23 23 22 21 20 18 17 16 16 15 14 14 13 13 12 11 11 10 9 9 9 8 8 9 10 10 11 11 11 12 12 12 11 12 12 12 13 12 12 12 13 14 15 17 18 17 16 14 13
12 12 12 12 9 9 11 11 12 13 11 8 7 5 3 3 5 6 7 9 10 12 14 17 19 23 28 29 28 27 26 25 25 25 26 26 25 24 23 22 21 19 18 17 17 16 15 15 14 14 14 13 12 12 11 11 10 10 9 10 11 12 13 13 13 13 12 12 12 11 12 12 12 12 12 12 12 13 14 14 16 17 16 14 12
14 14 13 12 9 10 13 13 13 13 12 11 11 10 7 6 3 3 5 7 9 11 12 15 17 20 25 29 29 28 27 26 25 25 26 26 26 25 24 23 23 22 20 19 18 17 17 16 16 16 15 15 14 14 13 12 12 11 11 11 13 14 15 14 13 13 12 12 12 11 11 11 12 12 12 12 12 12 13 13 14 15 16 15 13
15 14 13 12 8 11 14 12 11 12 13 13 14 13 11 10 8 5 5 6 7 9 10 13 15 17 21 27 30 29 28 27 26 26 26 27 27 27 26 25 24 24 22 21 20 19 18 18 18 17 17 16 16 15 14 14 13 13 13 13 14 15 16 15 13 12 12 12 12 12 12 12 12 12 12 13 12 12 12 12 12 13 14 15 14
17 14 15 14 10 11 13 8 8 12 13 14 15 15 13 10 9 8 7 7 6 7 9 11 13 15 18 23 28 30 30 29 28 27 27 28 28 28 28 27 26 25 24 23 22 21 20 19 19 19 18 18 17 17 16 15 15 14 15 15 16 17 17 15 13 11 11 11 12 13 13 13 12 12 12 13 13 12 12 12 12 11 12 13 14
18 15 16 16 12 12 12 9 9 12 13 14 15 15 15 12 10 8 7 8 7 8 9 10 11 12 15 19 24 28 30 30 30 29 29 29 29 29 29 29 28 27 26 25 24 22 22 21 21 20 20 20 19 18 18 17 17 16 17 17 18 19 18 17 15 13 11 11 12 13 14 14 14 13 12 13 13 13 12 11 11 11 11 11 12
20 19 17 17 13 13 13 12 12 12 12 14 15 15 15 14 11 9 8 7 8 8 9 9 9 10 12 14 18 24 28 30 31 31 31 29 29 29 29 29 29 28 27 26 25 24 23 23 22 22 22 22 21 21 20 20 19 19 19 19 20 20 20 19 18 15 14 13 14 14 14 14 15 14 13 13 13 13 13 12 12 11 11 10 10
22 22 20 17 16 15 14 14 14 13 13 13 15 16 15 14 12 10 9 8 7 8 9 8 8 9 9 9 11 16 23 28 31 31 31 31 30 29 29 29 29 29 29 28 27 26 25 25 24 24 24 24 23 23 22 22 22 21 21 21 21 22 22 22 20 19 17 16 16 15 15 15 15 16 15 14 13 13 13 13 12 12 11 11 10
23 23 21 18 17 17 15 16 16 15 15 15 15 14 14 14 13 13 12 10 8 8 8 7 8 9 9 9 6 7 14 22 28 31 31 31 31 30 29 29 29 30 30 29 29 28 28 27 27 26 26 26 26 25 25 25 25 24 24 24 24 24 24 23 22 21 19 18 17 17 17 17 17 17 17 16 15 14 13 13 12 12 12 12 11
23 23 22 19 20 19 17 17 17 16 16 16 14 13 13 14 16 16 15 12 10 10 8 7 8 8 10 11 7 4 8 14 22 28 30 31 31 30 28 28 28 28 29 29 29 29 29 29 29 29 28 28 28 27 27 27 26 26 26 26 25 25 25 25 24 23 22 20 19 20 20 19 19 19 19 18 17 15 14 13 13 12 12 12 12
22 22 22 22 22 21 19 18 17 17 16 15 15 14 13 14 17 18 17 15 12 11 10 8 9 10 11 11 7 5 6 9 13 19 25 29 29 29 27 27 27 27 27 28 28 28 28 29 29 29 29 29 29 28 28 27 27 26 26 26 25 25 26 26 25 24 24 23 22 22 23 22 21 21 21 20 19 17 16 15 14 13 13 12 12
21 21 22 23 24 23 22 21 19 18 16 16 17 17 15 14 16 17 16 15 14 13 10 7 9 12 13 13 9 7 8 8 10 13 17 23 25 26 25 25 26 26 26 26 27 27 28 28 28 28 29 29 29 28 28 27 27 26 26 26 26 25 25 26 26 26 26 25 25 24 25 24 24 24 23 22 21 19 17 16 15 14 14 13 13
19 20 21 22 23 25 26 25 23 21 19 17 17 17 16 14 15 17 16 15 14 12 9 6 7 11 14 16 13 10 10 9 10 10 11 15 19 21 23 23 24 24 25 26 27 27 28 28 28 28 28 28 28 28 28 27 27 27 27 27 27 26 25 25 26 27 27 27 27 27 26 26 26 26 26 24 23 21 19 18 16 16 15 15 14
17 18 19 19 21 23 26 26 26 25 23 20 18 15 13 14 15 16 15 14 13 11 9 6 7 8 11 16 16 11 10 10 9 9 8 10 13 15 18 19 20 21 23 23 24 25 26 28 29 29 29 29 28 28 28 28 29 29 30 30 29 29 28 27 27 28 28 28 29 29 28 29 29 28 28 25 24 23 21 20 18 17 17 16 16
14 15 16 16 17 19 22 24 24 25 25 23 21 16 12 14 15 15 14 13 12 12 11 9 8 8 9 10 16 13 11 11 10 9 8 8 10 11 13 14 15 17 18 19 20 21 22 23 24 26 28 29 29 29 29 30 30 31 31 32 32 31 31 31 31 31 31 31 31 31 31 31 31 29 27 26 25 24 23 21 20 19 18 18 17
11 11 12 12 13 15 17 19 20 22 24 24 23 20 16 14 15 15 13 12 12 13 14 12 11 9 7 4 10 11 11 11 10 9 9 9 10 10 10 11 12 14 15 16 17 18 18 19 20 22 24 26 27 27 27 28 29 30 31 31 32 32 32 32 32 32 32 32 31 32 32 31 30 29 27 26 26 25 24 23 21 20 20 19 19
7 8 9 10 9 10 12 14 15 18 21 23 24 22 19 16 15 15 14 13 13 15 17 16 15 14 9 6 5 6 8 10 11 11 10 11 12 11 11 10 11 12 13 14 15 16 17 18 19 21 22 24 25 25 26 26 27 27 28 29 30 30 30 30 31 31 31 30 29 30 30 29 29 28 27 26 26 26 26 24 23 22 21 21 21
5 5 6 7 8 8 8 9 11 14 17 20 22 22 21 19 18 17 16 15 15 16 17 16 16 16 14 12 9 7 9 11 12 13 13 13 13 13 13 13 13 13 13 13 14 14 15 16 17 19 20 22 23 24 24 24 25 25 26 27 28 28 29 29 29 29 28 28 27 27 27 27 27 27 26 26 26 27 27 26 25 24 24 23 23
4 4 4 5 5 6 6 7 7 9 12 15 18 19 20 21 21 21 20 19 18 18 17 17 17 17 16 16 15 13 12 13 14 14 15 15 14 15 15 15 15 15 16 15 15 16 16 16 17 18 19 20 21 22 22 23 23 24 24 24 25 26 26 26 27 27 27 26 26 26 26 26 26 25 25 26 26 26 27 27 27 27 26 25 25
5 5 4 4 4 4 5 5 6 7 8 10 13 15 16 18 19 20 21 21 21 20 20 20 20 20 19 19 19 17 17 17 16 16 16 17 16 17 18 17 17 18 18 18 18 18 19 19 19 20 20 21 22 22 22 22 22 22 22 22 23 23 23 24 24 24 24 24 24 24 25 26 25 24 24 25 25 25 26 27 27 27 27 26 26
8 7 6 5 5 5 5 5 5 6 7 8 9 10 11 12 13 15 16 17 18 18 19 19 19 20 20 20 20 20 20 20 20 20 21 21 20 21 21 20 20 21 21 21 20 20 21 21 22 22 22 23 23 22 22 23 23 22 21 21 22 22 22 22 22 22 22 22 22 21 22 24 24 23 23 24 25 25 25 25 26 27 27 27 27
8 9 8 8 7 7 7 6 6 6 6 7 8 9 9 9 9 10 11 12 13 13 14 15 15 16 17 18 18 19 20 20 21 23 24 25 26 25 24 24 23 23 23 23 22 22 22 23 23 23 23 23 23 23 23 23 23 23 22 21 22 23 22 21 21 21 21 21 21 20 20 19 20 21 21 22 23 24 24 24 25 26 27 27 27
8 8 8 9 8 8 8 8 8 7 7 7 8 8 8 8 8 8 8 9 10 10 11 11 12 12 13 14 15 16 17 18 19 20 22 23 25 26 26 26 25 24 25 24 24 24 24 24 25 25 25 25 25 25 25 25 25 24 24 24 25 24 23 22 21 21 20 20 20 19 18 16 15 16 17 19 20 22 23 24 25 25 26 27 25
8 7 7 8 8 8 9 9 9 9 9 9 9 9 9 9 8 8 8 9 10 10 10 10 10 10 10 11 12 12 13 15 16 17 18 20 22 23 24 25 25 25 26 27 27 27 27 27 27 28 28 29 29 28 28 27 28 28 27 27 28 27 24 22 22 22 21 20 19 19 18 17 15 15 16 18 19 20 21 22 23 24 25 25 24
9 8 7 7 7 8 8 8 9 10 10 10 11 11 11 11 10 10 10 10 10 11 11 11 11 11 11 11 11 12 12 13 13 14 15 16 18 20 21 22 23 24 25 26 27 28 29 30 31 31 31 32 33 32 31 30 30 31 31 31 30 29 26 24 23 22 21 20 20 20 19 19 18 17 17 18 20 20 20 20 21 22 23 24 24
10 10 9 8 7 7 7 7 8 9 10 11 11 12 12 13 13 13 12 12 12 12 12 12 12 12 13 13 13 13 13 14 14 14 15 15 16 17 18 19 19 21 22 22 23 24 26 28 30 32 33 35 35 34 34 33 33 33 33 33 32 31 29 27 25 24 23 23 22 22 22 22 22 21 20 19 20 21 20 18 18 20 21 23 24
10 10 10 10 9 8 7 7 7 8 9 10 11 11 12 13 14 14 14 14 14 14 14 15 14 14 15 15 15 15 16 16 16 16 17 17 17 18 18 18 18 19 19 19 19 20 21 23 25 28 31 33 33 33 33 34 35 36 36 35 33 32 33 32 30 28 26 26 27 27 26 26 25 24 24 22 22 22 22 19 17 18 20 22 23
10 10 10 11 11 10 10 9 8 8 8 9 10 11 11 12 13 14 15 15 15 15 16 16 16 16 16 17 17 17 17 18 18 18 19 19 19 19 20 20 20 20 19 19 18 17 18 19 19 22 26 28 29 30 31 31 32 35 37 38 37 36 36 36 36 34 32 31 32 32 31 30 28 28 28 27 25 24 24 21 18 18 20 22 23
9 10 10 11 12 12 12 11 10 10 9 10 10 11 11 12 13 14 14 15 15 15 15 15 15 16 16 16 17 17 17 18 18 18 19 20 20 21 21 21 22 21 21 20 18 18 18 18 19 21 22 23 24 26 28 29 31 33 34 36 38 39 39 39 39 39 37 35 36 36 36 34 33 32 32 31 29 27 27 24 19 18 20 21 22
8 10 10 11 12 13 13 13 13 12 12 11 11 11 12 12 13 14 14 15 15 15 16 15 15 14 14 14 15 15 16 16 17 17 17 18 19 19 20 20 21 21 22 21 18 17 19 19 20 22 23 22 23 24 26 28 30 32 33 33 34 37 39 40 41 41 40 39 39 38 38 38 38 37 36 35 33 30 29 28 24 21 21 21 21
10 10 11 11 11 12 12 13 13 13 13 13 13 12 12 12 12 13 14 14 15 15 16 15 15 15 15 14 14 14 14 15 15 16 16 17 18 19 19 20 20 21 21 21 18 15 18 19 20 23 24 24 24 24 25 27 29 31 33 33 33 35 37 38 39 40 40 40 40 39 39 39 39 39 39 40 38 35 32 30 27 24 22 22 22
13 12 13 13 13 12 12 12 13 13 14 14 14 14 13 13 12 12 13 13 14 15 16 15 15 15 15 14 14 14 14 14 15 16 16 17 18 19 20 20 21 22 21 22 19 15 17 20 20 22 24 24 25 26 26 28 29 31 32 33 34 35 36 37 37 38 39 39 38 38 38 38 39 40 41 41 40 38 35 31 29 27 25 24 24
17 16 16 16 15 15 14 14 14 15 15 15 15 15 15 15 14 13 13 13 14 15 16 16 16 16 15 15 15 15 16 16 16 17 17 18 19 20 21 22 23 23 23 23 21 17 17 21 21 22 24 24 24 26 27 28 28 30 32 33 33 35 36 37 37 38 38 39 38 37 36 37 38 39 40 40 38 36 34 32 30 29 28 26 25
21 20 20 19 19 18 17 17 17 17 17 16 16 16 16 16 15 15 14 14 14 15 15 16 16 17 17 17 18 18 19 19 19 20 20 21 22 23 24 24 25 25 25 25 24 21 18 20 22 22 24 25 25 25 27 28 28 29 31 31 32 34 35 36 37 37 37 39 39 38 37 37 37 38 39 40 39 36 34 33 31 30 28 27 27
24 24 24 23 22 21 21 20 20 20 20 19 18 18 18 17 17 17 16 16 16 16 16 16 17 18 18 19 20 21 21 22 23 24 25 25 26 26 26 26 26 27 27 27 27 26 22 21 23 23 24 25 25 26 28 29 29 30 30 30 31 33 34 36 36 36 36 37 39 40 39 38 37 38 39 40 41 40 38 36 33 31 30 30 30
28 27 27 27 27 25 24 23 23 23 23 23 22 21 20 20 19 19 18 18 19 19 18 19 19 20 20 21 21 22 23 24 24 25 27 28 28 29 28 28 28 29 29 30 30 29 28 25 25 26 26 26 25 26 28 29 30 31 31 31 31 32 33 34 36 37 36 36 37 39 40 40 39 39 39 40 42 42 41 39 36 34 34 33 33
31 31 30 30 30 30 28 27 27 27 27 26 26 25 25 24 23 22 21 20 20 20 21 21 22 22 23 23 24 24 25 25 26 27 28 28 29 30 30 30 31 31 32 32 32 32 31 29 28 28 29 28 28 27 28 29 30 31 32 32 33 33 34 34 35 36 36 36 36 36 37 39 40 40 40 40 41 42 41 40 39 38 37 37 36
35 34 33 33 33 33 32 31 31 30 30 30 29 29 28 28 28 26 24 23 22 22 22 23 24 24 25 26 26 27 27 28 28 29 29 29 30 30 31 31 33 34 35 35 35 34 33 32 30 30 31 31 31 30 29 30 31 31 32 33 34 34 35 35 35 35 36 37 36 35 35 36 38 40 40 40 40 41 41 41 40 40 40 39 38
38 35 34 35 35 36 36 35 35 34 33 33 32 32 32 32 32 31 29 28 26 25 24 24 25 26 27 28 28 29 29 30 30 30 31 31 31 31 31 32 34 35 36 37 37 37 37 35 33 32 32 33 33 32 31 32 33 33 33 34 34 35 35 36 36 36 36 37 37 37 36 35 36 37 39 40 40 40 41 41 41 40 40 40 40
40 36 36 38 37 37 38 38 38 38 36 35 35 35 35 36 35 34 33 32 30 29 28 27 27 27 28 29 30 30 31 31 32 32 33 33 33 32 32 33 34 36 37 37 38 39 39 39 37 36 35 35 35 34 33 34 35 35 35 36 36 35 36 37 37 36 36 37 38 38 38 37 37 37 37 38 38 38 39 41 42 41 40 41 41
39 38 40 42 40 38 38 39 38 38 38 38 37 37 38 38 38 37 36 35 34 33 32 30 29 29 29 30 30 31 32 32 33 34 34 35 35 34 34 35 36 36 37 38 38 39 40 41 40 40 39 39 38 36 36 36 37 37 38 38 38 37 37 38 37 36 36 37 38 39 39 39 39 38 38 37 36 36 36 38 40 40 39 40 41
39 39 40 41 40 39 40 39 37 36 37 39 39 39 39 40 39 38 38 38 37 36 35 34 32 31 31 31 31 32 33 33 34 34 35 36 36 36 36 37 37 38 38 39 39 40 41 42 42 42 42 42 41 40 39 39 39 40 40 40 41 40 40 40 38 37 37 38 39 40 40 41 41 40 39 37 36 35 35 36 37 38 38 39 40
41 39 38 37 37 40 43 42 38 37 38 39 40 40 40 40 40 40 40 40 40 39 38 37 36 34 33 32 33 33 34 34 35 35 35 36 37 37 38 38 39 40 40 41 41 42 43 43 43 43 43 43 42 42 43 42 42 42 42 42 43 43 42 41 40 39 38 38 40 41 41 41 42 41 40 38 36 35 35 35 36 36 37 38 39
42 41 39 38 37 39 42 43 41 40 40 39 40 41 41 40 40 41 42 42 42 42 40 39 39 38 36 35 34 34 35 35 36 36 36 37 38 38 39 40 41 41 42 42 43 43 43 44 44 44 44 44 43 43 43 44 44 44 45 45 44 44 43 43 42 41 40 40 40 41 42 41 41 42 41 39 38 38 37 36 36 36 35 36 37
42 41 40 39 37 37 39 41 43 43 43 42 41 41 40 40 41 42 43 43 43 43 42 41 41 41 39 38 37 36 36 36 37 37 38 39 39 40 41 42 42 42 43 43 43 44 44 44 45 45 45 45 46 45 44 45 45 46 46 46 46 45 45 44 43 42 41 41 42 42 41 41 41 42 42 41 41 40 39 38 37 36 35 34 35
40 39 38 37 35 35 37 41 44 45 45 45 44 42 42 41 42 42 44 44 44 44 44 43 42 42 41 40 39 38 38 38 38 39 40 41 42 42 43 43 43 43 43 43 43 44 44 45 46 46 46 47 48 48 46 46 47 47 46 46 47 47 47 46 45 43 41 41 42 43 42 41 41 42 42 42 42 42 41 39 38 36 35 34 34
35 36 35 34 33 33 35 40 43 45 45 47 47 46 45 44 44 44 45 45 45 45 45 44 43 42 41 41 41 40 40 40 40 41 42 43 44 45 45 45 45 44 44 44 44 44 45 46 46 47 48 48 49 50 49 48 49 50 49 48 47 48 48 48 46 43 41 40 42 44 44 42 41 42 43 44 43 42 41 39 38 37 35 34 34
34 33 33 34 33 31 34 40 44 45 46 47 48 48 48 47 47 46 45 45 45 44 44 44 43 42 42 42 42 43 43 43 42 43 44 45 46 47 47 47 46 46 46 45 45 45 46 47 47 48 49 50 51 51 52 52 52 53 53 52 50 49 49 49 48 45 42 40 41 44 45 43 41 41 43 45 45 44 41 39 38 37 36 35 35
37 36 36 36 34 32 35 40 43 44 44 44 46 48 49 49 49 48 47 46 44 44 44 44 43 43 43 43 44 45 46 46 45 45 46 47 48 49 49 49 48 48 48 47 47 47 47 48 49 50 50 52 53 53 53 53 54 55 56 56 55 53 51 50 50 48 45 42 40 43 45 44 42 41 42 44 46 46 44 40 38 37 36 36 35
38 39 38 36 34 35 39 42 42 41 42 43 45 48 49 50 50 49 49 47 45 44 44 44 43 43 44 44 45 46 47 47 47 47 48 49 50 50 51 51 51 51 50 49 48 48 49 49 50 52 53 54 54 54 54 53 53 55 57 58 58 57 55 53 52 50 48 46 43 43 45 44 42 41 42 44 46 48 47 43 40 39 37 36 36
35 37 35 32 33 37 39 40 40 41 42 45 47 48 49 48 47 47 47 46 44 44 44 44 44 44 44 44 45 45 46 47 47 48 49 50 51 52 52 53 53 53 51 51 51 51 51 51 51 53 54 55 55 55 54 53 52 53 55 57 58 59 59 58 55 52 51 49 46 44 44 44 43 42 43 44 45 46 48 47 43 40 38 37 37
Wind_Direction
242 237 238 237 236 241 240 236 239 241 237 228 219 203 198 192 185 213 244 246 233 227 222 215 206 205 208 208 207 209 211 212 213 213 213 213 212 212 211 211 211 212 215 217 219 219 217 216 213 213 214 218 224 229 237 249 262 275 284 290 294 298 302 306 311 315 320 325 331 336 341 346 351 354 357 1 8 15 21 24 26 29 33 35 38
242 240 240 240 238 246 250 243 241 241 235 225 231 234 217 200 177 194 231 242 235 229 224 221 213 207 208 210 209 209 211 212 213 213 214 214 213 212 212 212 212 212 214 216 218 218 217 216 215 214 214 217 222 227 234 244 255 267 276 281 287 291 294 298 302 306 310 315 320 325 330 335 341 346 348 351 357 5 12 19 22 24 28 30 32
242 244 246 248 242 247 252 247 244 246 246 241 242 248 250 250 231 195 219 238 238 232 227 224 221 213 209 211 212 210 211 213 213 214 215 215 214 213 213 214 215 215 216 216 218 219 218 217 217 217 217 219 223 228 234 243 253 263 271 276 281 286 291 294 299 302 306 311 315 318 321 325 330 336 340 342 346 353 1 10 17 19 22 25 27
243 248 254 256 251 253 253 251 257 256 254 253 251 252 254 253 254 251 241 240 244 240 235 231 227 222 214 212 213 212 211 212 214 214 215 216 216 215 214 216 217 219 219 220 220 220 220 220 220 221 222 223 228 233 237 243 251 259 267 272 276 282 287 291 296 301 306 310 314 316 318 319 322 326 331 334 337 342 350 358 8 14 15 18 22
240 247 258 256 244 254 261 266 272 257 246 248 251 253 255 256 252 248 244 240 245 248 245 241 236 231 223 216 214 214 212 212 213 215 216 217 218 217 217 218 219 221 223 224 224 223 223 223 223 224 226 228 232 237 240 243 248 255 262 267 272 277 282 286 290 294 303 310 314 316 317 318 318 320 322 326 329 332 338 346 355 4 9 12 14
235 236 251 257 241 243 262 268 260 253 246 244 247 249 252 257 253 244 241 236 234 238 241 244 243 239 234 226 219 217 215 212 212 214 216 217 219 219 220 221 222 224 225 227 228 227 226 226 227 228 230 233 236 239 243 246 250 253 258 263 268 272 277 281 284 287 295 304 311 314 317 318 317 316 316 318 321 324 328 334 342 350 358 5 7
235 230 239 255 247 232 246 257 256 256 254 249 248 248 247 250 253 250 247 241 236 235 235 238 245 247 243 237 228 223 220 216 213 214 216 218 219 220 221 223 225 226 228 230 231 231 231 230 231 233 235 238 241 243 247 250 253 256 259 262 266 268 272 277 280 283 287 293 300 307 312 314 315 314 312 311 312 315 318 322 329 337 344 353 359
240 239 239 247 247 232 233 247 254 258 259 256 252 249 246 245 250 255 257 255 247 239 236 234 244 255 258 251 238 230 225 221 218 216 216 217 219 220 221 223 226 228 230 231 233 234 235 235 235 237 239 242 244 247 249 252 254 257 260 262 265 267 269 273 276 279 281 285 290 296 301 305 309 310 309 307 305 306 308 311 317 324 331 338 346
241 244 241 240 245 241 237 241 247 256 261 261 256 251 247 244 246 250 255 258 251 245 245 243 245 257 270 269 253 236 230 224 221 219 218 218 219 221 222 223 225 228 231 233 234 236 238 239 240 241 243 245 247 250 252 255 257 259 260 262 264 266 267 270 274 277 279 281 285 289 292 296 300 303 304 303 300 298 299 300 305 312 319 325 332
239 243 242 239 241 241 242 244 248 255 260 264 266 263 256 246 241 240 245 252 254 251 251 259 260 259 263 262 255 242 238 230 225 222 220 219 220 221 222 224 226 228 231 234 236 238 241 243 244 245 246 248 251 253 255 258 260 262 263 263 263 264 265 268 271 274 276 279 282 286 288 289 293 296 297 298 296 293 291 292 295 300 308 314 320
241 243 243 242 242 241 241 243 248 253 258 263 264 262 257 248 241 237 238 246 252 251 251 260 264 254 247 247 241 224 233 238 234 229 224 222 222 222 223 225 227 230 232 235 238 240 242 245 247 249 250 252 254 256 259 261 263 265 265 265 264 262 263 265 268 270 273 276 278 282 285 285 287 290 292 292 290 288 286 286 288 292 298 304 309
248 247 245 245 247 247 245 243 244 248 253 256 256 256 255 251 247 242 238 241 245 247 249 257 262 254 241 231 216 197 206 221 230 232 230 227 225 224 225 226 229 231 233 236 239 241 243 245 247 249 251 253 255 258 261 263 265 266 267 267 266 264 261 263 266 269 271 274 276 279 281 282 283 287 289 287 284 282 281 281 282 286 290 295 300
257 255 251 248 249 251 251 249 247 247 249 252 256 258 258 259 256 249 244 243 241 240 238 248 262 256 243 229 210 192 195 200 208 214 222 225 224 223 223 225 228 230 234 236 239 241 243 244 245 247 249 251 254 256 259 262 264 266 267 268 268 267 264 263 264 267 269 272 275 277 278 280 281 284 285 283 279 277 276 276 278 281 285 289 293
260 259 257 254 252 253 253 252 251 249 247 250 256 259 259 258 256 252 249 246 243 233 220 230 247 256 262 238 209 198 202 196 197 200 207 216 216 218 219 220 223 226 231 235 238 241 243 244 244 245 247 249 251 253 256 259 261 263 265 266 267 267 267 266 266 266 268 271 274 276 277 278 281 282 283 279 274 273 273 272 274 277 280 285 289
265 263 261 259 256 255 256 254 252 248 245 246 251 255 254 251 251 252 250 245 242 231 219 226 244 269 296 244 204 205 213 202 201 204 207 213 211 213 214 213 217 221 225 229 234 238 242 243 243 244 245 247 250 251 254 256 258 261 263 265 266 267 268 269 269 269 269 271 273 275 276 278 280 280 279 276 271 269 270 269 270 273 277 282 286
273 270 268 266 261 258 258 257 254 250 245 244 247 251 252 251 252 254 254 249 243 238 231 232 241 260 300 252 203 212 219 215 221 218 212 215 215 216 215 216 221 223 224 227 231 235 238 240 240 241 243 245 248 250 252 255 257 259 261 263 265 267 268 269 270 271 272 273 274 275 276 277 278 277 275 272 268 266 266 267 267 269 273 277 281
283 278 275 275 272 266 261 258 254 251 246 244 245 248 250 251 253 255 256 252 245 243 242 240 242 244 254 257 233 232 236 239 239 230 221 220 222 224 225 227 231 232 232 232 235 239 241 243 243 243 244 245 247 249 251 253 256 259 262 265 266 268 270 271 272 273 274 275 276 276 276 276 276 275 272 270 267 265 265 265 265 266 268 272 276
300 291 283 279 280 278 273 263 255 251 247 244 243 243 245 247 251 253 254 252 248 248 248 248 247 242 240 241 244 253 265 266 254 239 231 229 231 235 237 239 239 240 241 241 242 245 248 250 251 251 250 250 251 251 253 255 257 260 263 266 268 270 271 272 274 275 276 277 278 278 278 278 277 275 273 269 266 265 265 265 264 265 267 270 274
302 300 291 284 284 284 284 278 265 257 252 248 245 242 242 244 248 251 253 252 252 251 250 250 251 249 245 244 243 243 249 261 264 254 241 236 238 244 246 246 245 245 244 245 247 248 249 252 254 256 256 255 254 254 255 257 258 260 263 266 268 270 271 273 274 275 277 277 278 279 278 278 278 277 275 271 268 266 265 265 265 267 269 272 275
289 291 289 285 284 284 284 281 274 264 256 254 251 248 245 245 247 249 251 251 251 253 252 252 254 253 251 250 248 244 240 244 253 256 251 244 241 245 249 249 248 247 245 247 250 250 250 252 255 258 258 257 256 255 257 259 260 260 261 264 265 266 268 270 272 274 276 277 277 278 278 278 278 277 276 274 271 268 266 266 268 269 270 272 276
282 284 285 285 285 284 285 281 278 271 263 260 258 256 252 248 247 247 248 250 250 251 253 253 254 254 254 253 252 250 246 241 241 244 247 246 244 245 249 251 251 249 247 249 252 253 253 253 255 256 255 255 256 258 261 262 262 262 262 263 263 263 263 265 269 272 274 276 277 278 278 279 278 276 275 275 274 272 270 269 270 271 271 272 275
283 279 277 279 281 282 284 283 280 276 271 267 265 267 266 261 256 252 252 255 255 254 254 254 254 255 255 255 254 253 251 247 243 242 243 245 247 247 248 249 252 253 252 251 252 254 256 256 255 253 250 251 254 258 261 262 261 261 261 261 261 262 265 267 269 270 270 273 275 277 277 277 278 278 277 277 277 276 275 273 272 273 274 275 276
300 288 279 275 273 274 278 280 280 277 273 271 269 271 273 273 271 266 262 263 264 264 262 261 260 259 259 258 258 256 256 254 251 248 248 248 250 251 249 248 248 251 253 253 254 255 256 256 255 252 250 251 255 257 258 258 258 258 258 258 258 260 263 267 268 267 268 270 272 275 275 273 275 281 283 283 281 279 278 277 275 275 276 277 276
322 309 294 284 276 272 271 272 274 274 272 271 271 272 274 276 275 274 271 269 270 271 270 270 269 269 268 266 266 263 262 262 260 257 255 254 255 255 254 253 251 250 251 252 254 256 257 257 256 255 254 255 257 258 257 256 255 255 255 255 256 258 260 261 262 265 268 270 271 272 273 271 272 279 286 285 283 282 281 279 278 277 276 277 275
335 331 324 310 297 287 278 274 272 271 269 268 268 268 269 271 273 273 273 272 271 273 274 274 274 274 274 274 274 273 272 271 270 268 265 262 261 261 261 260 258 256 255 254 254 255 256 256 257 258 258 258 258 258 257 257 256 254 254 254 254 255 256 255 257 260 263 266 268 269 271 273 275 279 284 283 282 283 282 281 281 280 278 276 275
337 339 342 339 327 313 301 292 284 278 275 272 270 268 268 268 270 271 271 271 271 271 273 274 275 275 276 276 276 277 277 278 278 278 277 274 272 270 269 267 265 263 261 260 258 257 256 256 257 258 258 259 259 259 258 257 256 255 256 257 257 256 254 253 255 256 258 261 264 265 268 273 277 281 282 280 280 282 282 283 283 283 282 280 277
335 336 341 343 341 333 324 315 305 296 290 286 281 278 276 274 272 272 271 271 270 269 269 270 271 271 273 274 274 274 274 275 276 277 278 278 277 276 275 273 271 268 266 264 262 260 259 258 257 257 258 259 260 262 261 258 256 255 255 257 258 256 254 254 255 255 256 259 262 263 265 269 274 277 278 278 278 278 279 280 283 285 287 285 282
338 337 339 341 340 338 333 329 324 317 310 303 298 295 294 290 286 284 281 278 276 273 270 269 268 268 268 269 271 272 272 272 273 273 273 274 275 275 275 274 272 271 269 267 266 265 264 263 262 259 259 260 262 263 264 262 259 256 255 255 256 255 254 256 256 256 258 260 261 263 264 266 269 270 272 274 274 274 274 275 279 285 289 289 287
337 337 339 341 341 341 337 334 330 326 322 315 311 310 308 305 301 298 295 291 289 285 280 276 272 270 269 269 270 271 271 272 272 272 272 273 273 274 275 275 274 274 272 269 266 267 267 266 267 265 263 265 265 263 263 265 265 263 260 258 257 255 255 256 257 259 261 261 261 262 263 264 265 266 268 270 271 270 270 272 277 282 285 287 288
321 324 329 333 338 343 342 339 333 326 322 319 318 318 314 311 308 304 301 297 295 292 289 286 282 278 274 272 271 271 272 274 274 274 275 274 275 275 276 276 277 278 278 276 272 269 268 266 265 266 266 266 265 264 264 265 265 266 266 264 261 258 257 258 259 261 262 262 262 262 262 263 263 264 265 267 268 267 266 269 273 275 276 279 282
295 303 311 317 324 333 339 341 337 329 323 318 317 317 315 313 310 307 304 299 294 291 288 286 285 283 280 277 275 273 273 274 275 276 277 278 279 279 280 280 280 280 280 281 280 275 272 269 265 265 265 264 264 264 264 265 265 266 266 265 265 263 261 261 261 263 264 264 264 263 262 261 261 262 263 264 264 263 263 264 266 268 269 270 273
280 287 295 301 307 315 323 330 333 331 328 323 318 313 309 308 306 305 304 301 296 291 287 283 281 279 277 276 274 273 273 274 275 277 278 279 281 281 282 282 282 281 280 281 281 279 276 274 270 268 268 266 266 264 262 262 264 265 266 266 266 265 265 265 264 264 265 266 266 264 262 260 259 259 260 260 260 260 259 258 260 263 265 267 269
275 278 284 291 297 303 309 315 320 324 327 327 322 314 307 302 300 299 300 299 296 292 288 284 280 277 274 272 271 270 271 272 273 275 278 280 282 283 283 283 282 282 281 280 280 278 276 276 274 272 272 271 269 268 267 264 263 263 265 266 267 267 267 267 267 266 266 265 265 263 262 260 259 258 257 257 258 258 257 257 260 261 260 263 266
271 274 279 284 290 296 300 304 308 312 316 320 321 318 313 307 300 295 292 291 290 289 286 282 280 278 276 276 276 277 278 280 281 283 284 286 287 288 287 286 285 284 283 283 283 281 277 275 274 272 272 272 271 271 271 269 267 266 265 265 266 267 268 268 268 268 266 264 262 261 260 260 259 258 258 257 257 256 256 258 260 260 256 256 261
266 270 274 278 283 288 293 296 300 303 306 309 311 314 315 313 306 299 292 287 284 282 281 278 275 273 273 275 277 280 282 283 285 286 288 289 290 291 290 289 287 287 287 287 287 286 283 279 276 274 272 271 270 270 270 270 269 269 268 267 267 267 267 267 267 267 266 264 261 259 258 258 258 258 258 258 257 256 254 255 257 257 255 256 259
262 265 269 273 277 282 286 289 292 295 298 302 304 306 309 310 308 303 296 289 283 279 278 276 274 271 270 271 273 275 277 279 279 280 282 285 288 290 291 290 289 289 289 289 290 290 289 286 282 279 276 273 271 268 268 268 268 268 269 269 269 268 268 268 268 267 266 264 262 260 258 256 255 256 257 258 258 257 255 254 253 253 255 257 260
259 261 264 269 274 278 280 283 286 289 292 295 298 302 303 304 303 302 298 292 287 282 278 276 274 273 272 272 272 273 273 274 275 276 278 280 283 287 289 291 291 291 290 290 289 289 289 288 287 284 281 279 275 272 269 269 268 268 268 268 268 268 268 268 269 269 267 266 264 262 260 257 254 254 254 255 257 257 256 254 252 252 253 255 258
255 256 260 265 269 273 276 278 280 283 286 289 293 296 297 297 298 299 297 294 290 284 280 277 276 275 274 274 274 274 274 274 274 275 276 278 279 281 284 287 289 290 290 290 289 288 287 287 286 285 283 282 280 277 274 272 270 269 267 266 266 266 267 267 268 269 268 267 265 264 262 260 257 254 253 253 253 255 256 256 254 253 253 253 255
253 252 257 261 265 269 272 274 276 279 282 285 288 289 290 291 293 296 296 295 292 287 282 279 277 276 275 275 275 275 276 276 276 276 276 276 277 278 280 283 285 286 288 289 289 289 288 287 286 284 283 282 281 279 277 275 273 271 268 266 264 264 264 265 266 267 268 267 266 264 263 262 261 258 254 252 251 252 255 257 256 255 253 252 253
258 257 258 259 260 263 267 271 275 277 279 282 284 285 284 286 289 292 294 294 293 290 286 282 279 277 275 275 276 276 277 277 277 278 277 277 277 277 278 280 281 283 285 286 287 288 289 289 289 287 285 283 281 280 278 275 273 272 270 268 266 263 262 262 262 264 266 267 266 265 263 262 262 261 258 255 253 254 256 257 257 256 254 252 252
261 260 259 258 257 258 263 269 274 277 278 280 282 283 282 283 285 288 291 293 294 292 289 286 282 279 277 276 276 277 277 278 278 278 278 277 277 278 278 279 280 281 282 283 284 285 286 287 288 288 288 286 284 282 280 277 274 272 270 269 268 265 262 261 260 260 262 264 265 264 263 261 261 261 260 259 258 257 258 258 258 258 257 254 252
259 260 262 262 261 260 262 266 271 275 276 277 279 281 281 281 283 286 289 292 293 292 290 288 285 281 279 278 277 277 277 277 277 277 277 277 277 277 278 279 280 282 283 283 284 285 286 286 287 287 287 287 286 285 282 280 277 274 271 269 268 267 264 262 260 258 258 260 262 262 262 260 260 260 260 260 259 258 257 257 257 259 259 256 254
259 261 264 266 265 263 262 263 267 271 272 274 276 277 278 279 281 284 286 289 291 291 290 288 286 284 281 279 278 277 277 277 277 276 276 276 276 277 278 279 281 283 284 285 285 286 287 287 287 287 287 287 286 285 283 281 279 277 274 271 269 267 266 264 261 258 256 257 259 260 260 259 259 260 259 259 258 258 256 255 256 259 260 259 257
258 260 263 265 266 265 262 261 264 267 268 270 273 273 274 277 279 282 284 286 288 288 288 287 287 286 285 282 280 279 279 279 278 277 276 275 275 276 278 279 281 282 283 284 285 285 286 286 287 287 287 287 286 284 282 281 280 278 276 274 271 269 267 265 263 260 257 255 255 257 258 259 259 259 259 257 256 256 255 255 256 259 262 261 258
260 261 263 266 267 265 262 261 262 263 264 267 270 271 273 274 276 279 281 283 284 286 286 286 286 286 286 285 284 283 282 281 281 280 278 277 276 277 278 278 279 280 281 282 283 283 284 285 286 286 286 286 285 283 281 280 279 277 275 274 273 271 268 266 264 262 259 256 255 255 256 257 257 257 257 256 255 255 255 255 256 259 262 261 258
262 263 265 267 267 266 265 262 260 259 261 264 267 270 272 273 274 277 279 280 282 284 284 286 287 287 288 288 287 286 285 283 282 281 279 278 277 277 277 278 278 278 279 279 280 281 282 282 283 284 284 284 283 283 281 279 277 276 274 272 272 271 270 267 265 263 261 259 258 256 255 255 255 256 256 255 255 254 254 255 256 258 260 259 257
261 262 264 267 268 268 268 263 257 256 259 262 265 268 270 272 273 274 276 278 280 282 284 286 288 289 289 289 289 288 286 284 282 281 280 279 278 277 277 277 278 278 278 278 278 278 279 279 280 281 281 281 280 280 279 277 275 274 272 270 268 268 267 267 266 264 261 259 258 258 256 254 253 254 254 255 255 255 254 255 256 257 257 256 255
259 260 262 265 268 269 267 260 255 255 259 263 266 269 271 272 272 271 273 276 278 281 284 286 288 288 288 288 288 287 286 285 284 283 282 281 280 279 279 279 278 278 278 278 278 278 278 278 277 277 278 277 277 276 275 274 273 272 271 269 267 265 264 265 265 264 261 258 257 258 258 255 253 252 251 252 254 255 255 254 255 255 254 253 253
259 260 262 265 267 265 260 257 255 257 262 267 271 272 272 272 271 270 272 274 277 281 283 284 285 285 285 286 286 286 286 286 286 285 285 284 283 282 282 281 280 280 280 279 279 279 278 278 278 277 277 276 275 274 272 271 270 269 269 268 267 265 263 262 262 262 260 257 254 255 257 256 254 252 251 249 250 252 253 253 253 253 253 252 251
260 259 260 262 263 260 257 257 259 262 266 269 272 272 271 269 269 270 270 273 277 281 283 283 283 283 284 284 285 285 286 287 287 286 286 286 285 284 283 283 282 282 282 282 281 280 278 278 278 278 277 275 274 273 271 269 268 267 267 267 267 266 264 262 260 259 258 256 253 251 253 255 254 252 252 250 248 247 249 250 250 251 252 252 252
259 256 254 253 256 259 260 261 262 264 267 268 269 269 268 268 269 269 269 272 277 281 283 283 284 284 284 284 284 284 285 286 286 286 286 286 285 284 284 283 283 283 283 283 282 281 279 279 277 276 275 275 274 273 271 269 266 265 265 265 265 265 264 263 262 259 256 255 254 251 251 252 252 250 250 251 249 246 245 245 245 247 249 250 251
Height
3149 3149 3150 3150 3151 3152 3152 3153 3153 3153 3154 3154 3154 3154 3153 3154 3155 3155 3156 3156 3156 3157 3159 3161 3163 3165 3166 3167 3168 3170 3172 3173 3175 3176 3177 3179 3180 3182 3183 3185 3186 3187 3189 3190 3191 3192 3192 3193 3194 3194 3195 3195 3196 3196 3196 3197 3197 3197 3197 3197 3197 3197 3197 3196 3196 3196 3195 3195 3195 3195 3195 3194 3194 3193 3193 3192 3191 3190 3189 3188 3186 3184 3183 3182 3181
3148 3148 3148 3149 3151 3152 3151 3151 3152 3152 3153 3154 3154 3154 3154 3154 3155 3155 3156 3155 3155 3156 3157 3158 3161 3163 3165 3165 3166 3168 3170 3171 3173 3174 3176 3177 3179 3180 3181 3183 3184 3186 3187 3188 3189 3190 3191 3192 3192 3193 3194 3194 3194 3195 3195 3196 3196 3196 3196 3196 3196 3196 3196 3196 3196 3195 3195 3195 3195 3194 3194 3194 3194 3193 3193 3192 3191 3191 3190 3188 3187 3185 3184 3182 3181
3146 3146 3146 3148 3150 3151 3150 3150 3151 3152 3153 3153 3153 3153 3153 3154 3154 3155 3155 3155 3155 3155 3155 3156 3158 3161 3163 3164 3165 3166 3168 3169 3171 3173 3174 3175 3177 3178 3180 3181 3182 3184 3185 3186 3187 3188 3189 3190 3191 3192 3192 3193 3193 3194 3194 3195 3195 3195 3195 3195 3195 3195 3195 3195 3195 3195 3194 3194 3194 3194 3194 3193 3193 3193 3193 3192 3191 3191 3190 3189 3188 3186 3185 3183 3182
3145 3145 3145 3147 3150 3149 3148 3150 3151 3151 3152 3152 3152 3152 3152 3153 3153 3154 3154 3155 3155 3154 3154 3155 3156 3158 3161 3163 3163 3164 3165 3167 3169 3171 3173 3174 3175 3176 3177 3179 3180 3182 3183 3184 3186 3187 3188 3189 3189 3190 3191 3191 3192 3192 3193 3193 3194 3194 3194 3194 3194 3194 3194 3194 3194 3194 3194 3193 3193 3193 3193 3193 3192 3192 3192 3191 3191 3190 3190 3189 3188 3187 3185 3184 3183
3143 3144 3144 3145 3149 3148 3147 3150 3151 3149 3149 3150 3150 3151 3151 3151 3152 3153 3153 3153 3154 3154 3154 3154 3155 3157 3158 3160 3162 3162 3163 3165 3167 3169 3170 3171 3173 3174 3175 3177 3178 3180 3181 3182 3184 3185 3186 3187 3188 3188 3189 3190 3190 3191 3191 3192 3192 3192 3192 3192 3192 3192 3192 3193 3193 3193 3193 3192 3192 3192 3192 3192 3191 3191 3191 3191 3190 3189 3189 3188 3188 3187 3186 3185 3183
3142 3144 3143 3143 3147 3148 3147 3148 3148 3147 3147 3148 3149 3150 3150 3151 3151 3152 3152 3152 3152 3153 3153 3153 3154 3155 3156 3158 3160 3161 3161 3162 3164 3166 3168 3169 3171 3172 3174 3175 3176 3178 3179 3180 3182 3183 3184 3185 3186 3187 3187 3188 3189 3189 3190 3190 3190 3191 3191 3191 3191 3191 3191 3191 3191 3192 3192 3191 3191 3191 3191 3190 3190 3190 3190 3190 3189 3188 3188 3188 3187 3187 3186 3185 3184
3141 3142 3142 3142 3145 3147 3146 3146 3146 3146 3146 3147 3147 3148 3148 3149 3150 3151 3151 3151 3152 3152 3152 3152 3152 3153 3154 3156 3157 3159 3160 3161 3162 3163 3165 3167 3169 3170 3172 3173 3174 3176 3177 3178 3180 3181 3182 3183 3184 3185 3185 3186 3187 3187 3188 3188 3188 3189 3189 3189 3189 3189 3189 3189 3189 3190 3190 3190 3190 3190 3189 3189 3189 3189 3189 3189 3188 3188 3187 3187 3186 3186 3185 3185 3184
3138 3140 3142 3142 3142 3143 3144 3144 3144 3144 3145 3145 3146 3146 3147 3148 3149 3149 3150 3150 3151 3151 3151 3151 3151 3152 3153 3154 3155 3156 3158 3159 3160 3161 3162 3164 3166 3168 3169 3171 3172 3174 3175 3176 3177 3179 3180 3181 3182 3183 3183 3184 3185 3185 3186 3186 3186 3187 3187 3187 3187 3187 3187 3187 3187 3188 3188 3189 3189 3188 3188 3188 3188 3188 3187 3187 3187 3187 3186 3186 3185 3185 3184 3184 3183
3136 3137 3140 3141 3140 3141 3142 3143 3142 3142 3143 3143 3144 3146 3148 3148 3148 3148 3149 3149 3149 3149 3150 3150 3150 3151 3152 3152 3153 3154 3155 3157 3158 3159 3160 3162 3163 3165 3167 3169 3170 3171 3172 3174 3175 3176 3178 3179 3180 3180 3181 3181 3182 3183 3183 3184 3184 3185 3185 3185 3185 3185 3185 3185 3185 3186 3186 3187 3187 3187 3186 3186 3186 3186 3186 3186 3186 3185 3185 3185 3184 3184 3183 3183 3182
3135 3136 3137 3138 3138 3139 3140 3140 3140 3141 3141 3142 3144 3146 3147 3147 3146 3146 3147 3148 3148 3148 3149 3149 3149 3150 3151 3151 3151 3152 3153 3154 3156 3157 3158 3160 3161 3163 3164 3166 3168 3169 3170 3171 3173 3174 3175 3176 3177 3178 3179 3179 3179 3180 3181 3181 3182 3182 3182 3182 3183 3183 3182 3183 3183 3183 3184 3185 3185 3185 3185 3185 3184 3184 3184 3184 3184 3184 3184 3183 3183 3183 3182 3182 3181
3134 3134 3135 3135 3136 3137 3137 3138 3138 3139 3141 3141 3142 3143 3144 3144 3144 3145 3146 3147 3147 3147 3147 3148 3148 3149 3150 3150 3150 3151 3152 3153 3154 3155 3157 3158 3159 3160 3162 3164 3165 3167 3168 3169 3170 3171 3172 3173 3174 3175 3176 3177 3177 3177 3178 3179 3179 3179 3179 3180 3180 3180 3180 3180 3180 3181 3181 3182 3182 3183 3182 3182 3183 3182 3182 3183 3182 3182 3182 3182 3182 3181 3181 3181 3180
3132 3132 3133 3133 3133 3134 3135 3135 3136 3138 3139 3139 3140 3140 3141 3141 3142 3143 3145 3145 3146 3146 3147 3147 3147 3148 3149 3149 3149 3150 3151 3152 3153 3154 3155 3156 3157 3159 3160 3162 3163 3164 3165 3167 3168 3169 3169 3170 3171 3173 3174 3174 3174 3175 3175 3176 3176 3177 3177 3177 3177 3178 3178 3179 3178 3178 3179 3179 3179 3180 3180 3180 3181 3181 3180 3181 3180 3180 3180 3180 3180 3180 3179 3179 3179
3129 3129 3130 3131 3131 3131 3132 3133 3134 3136 3137 3137 3138 3139 3139 3140 3141 3142 3143 3144 3144 3145 3146 3146 3146 3147 3147 3147 3148 3149 3150 3151 3152 3153 3154 3155 3156 3157 3158 3159 3160 3161 3162 3164 3165 3166 3166 3167 3168 3170 3170 3171 3172 3172 3173 3173 3174 3174 3174 3174 3174 3175 3175 3176 3176 3176 3176 3176 3177 3177 3178 3178 3178 3178 3178 3178 3178 3178 3178 3178 3178 3178 3177 3177 3177
3127 3127 3127 3128 3129 3129 3129 3130 3132 3133 3134 3135 3136 3137 3138 3138 3138 3139 3141 3141 3142 3143 3144 3144 3145 3145 3145 3145 3147 3149 3149 3150 3152 3152 3153 3154 3155 3156 3156 3157 3158 3158 3160 3161 3162 3162 3163 3164 3165 3166 3167 3168 3169 3170 3170 3171 3171 3171 3171 3171 3172 3172 3172 3173 3173 3173 3174 3174 3174 3174 3175 3175 3176 3176 3176 3176 3176 3176 3176 3176 3176 3176 3175 3175 3175
3125 3125 3125 3126 3127 3127 3127 3128 3129 3131 3132 3133 3134 3136 3137 3136 3136 3137 3138 3139 3140 3141 3142 3143 3143 3143 3143 3143 3145 3147 3148 3149 3150 3151 3152 3153 3153 3154 3155 3155 3155 3156 3157 3158 3159 3160 3160 3161 3162 3163 3164 3165 3166 3167 3167 3167 3168 3168 3168 3169 3169 3169 3170 3170 3170 3170 3171 3171 3171 3171 3171 3172 3172 3173 3173 3173 3173 3173 3173 3173 3174 3173 3173 3173 3173
3123 3123 3123 3124 3125 3125 3125 3125 3127 3128 3129 3131 3132 3133 3134 3134 3135 3135 3136 3137 3139 3140 3141 3141 3141 3142 3142 3142 3144 3146 3147 3148 3149 3150 3150 3151 3152 3153 3153 3154 3154 3155 3155 3156 3157 3157 3158 3159 3160 3161 3161 3162 3163 3164 3164 3165 3165 3165 3165 3165 3166 3166 3167 3167 3167 3167 3167 3168 3168 3167 3168 3168 3169 3170 3170 3170 3171 3171 3171 3171 3171 3171 3171 3170 3170
3122 3122 3122 3123 3123 3123 3123 3124 3125 3126 3127 3128 3130 3131 3132 3133 3133 3134 3135 3136 3137 3138 3139 3139 3140 3140 3141 3142 3143 3144 3145 3146 3147 3148 3149 3149 3150 3151 3152 3152 3153 3154 3154 3155 3155 3156 3156 3157 3158 3158 3159 3160 3160 3161 3161 3162 3162 3162 3162 3162 3163 3163 3164 3164 3164 3164 3164 3164 3164 3164 3164 3165 3165 3166 3167 3168 3168 3168 3168 3168 3169 3168 3168 3168 3168
3122 3122 3121 3121 3122 3122 3122 3123 3123 3124 3125 3126 3127 3129 3130 3131 3131 3132 3133 3134 3135 3136 3137 3138 3138 3139 3140 3141 3141 3142 3143 3144 3145 3146 3147 3147 3148 3149 3150 3151 3152 3153 3153 3154 3154 3155 3155 3156 3156 3157 3157 3158 3158 3158 3159 3159 3160 3160 3160 3160 3160 3160 3161 3161 3161 3161 3161 3162 3161 3161 3161 3162 3162 3163 3164 3164 3165 3165 3165 3165 3165 3165 3165 3165 3165
3121 3121 3121 3121 3121 3121 3121 3121 3122 3122 3123 3124 3125 3126 3128 3129 3130 3130 3131 3132 3132 3134 3135 3136 3136 3137 3137 3138 3139 3140 3141 3142 3143 3144 3145 3146 3146 3147 3148 3149 3150 3151 3152 3152 3153 3153 3154 3155 3155 3155 3156 3156 3156 3157 3157 3157 3157 3157 3158 3157 3157 3157 3157 3157 3158 3158 3158 3158 3159 3158 3158 3158 3159 3159 3160 3161 3161 3161 3162 3162 3162 3162 3162 3162 3162
3121 3121 3121 3120 3120 3120 3120 3121 3121 3122 3122 3122 3123 3124 3125 3126 3127 3128 3128 3129 3130 3131 3132 3133 3133 3134 3135 3135 3136 3137 3138 3139 3140 3141 3142 3143 3144 3145 3146 3147 3148 3149 3149 3150 3151 3151 3152 3153 3153 3154 3154 3154 3154 3155 3155 3155 3155 3155 3155 3155 3154 3154 3154 3154 3155 3155 3155 3155 3155 3155 3155 3155 3155 3156 3157 3157 3157 3158 3159 3159 3159 3159 3159 3159 3159
3120 3120 3120 3120 3120 3120 3120 3120 3120 3121 3121 3122 3122 3122 3123 3124 3125 3125 3126 3126 3127 3128 3129 3130 3130 3131 3131 3132 3133 3134 3135 3136 3137 3139 3139 3140 3141 3142 3143 3145 3145 3146 3147 3147 3148 3149 3150 3151 3151 3152 3152 3152 3152 3152 3153 3153 3153 3153 3153 3152 3152 3152 3152 3152 3152 3153 3153 3152 3153 3153 3152 3152 3152 3153 3154 3154 3154 3154 3155 3156 3155 3155 3156 3156 3156
3119 3119 3119 3119 3119 3119 3119 3119 3119 3120 3120 3121 3121 3121 3122 3122 3123 3124 3124 3124 3125 3125 3126 3127 3127 3128 3128 3129 3130 3130 3132 3133 3134 3136 3136 3137 3138 3139 3141 3141 3142 3143 3143 3144 3145 3146 3147 3148 3148 3149 3149 3149 3150 3150 3150 3150 3150 3150 3150 3150 3149 3149 3150 3150 3150 3150 3150 3150 3150 3150 3150 3150 3150 3150 3151 3151 3151 3151 3152 3152 3152 3152 3152 3153 3153
3119 3118 3118 3118 3118 3119 3119 3119 3119 3119 3119 3119 3120 3120 3120 3121 3122 3122 3122 3123 3123 3123 3124 3124 3125 3126 3126 3126 3127 3128 3128 3129 3131 3132 3133 3134 3135 3136 3137 3138 3139 3140 3140 3141 3142 3143 3144 3145 3145 3145 3146 3147 3147 3147 3147 3147 3147 3148 3148 3147 3147 3147 3147 3147 3147 3147 3148 3148 3148 3148 3148 3148 3148 3147 3148 3148 3148 3148 3148 3148 3149 3149 3149 3149 3149
3118 3118 3117 3117 3117 3118 3118 3118 3118 3118 3118 3119 3119 3119 3119 3120 3120 3121 3121 3121 3121 3122 3122 3123 3123 3123 3124 3124 3125 3125 3126 3127 3128 3128 3129 3130 3131 3132 3133 3134 3136 3137 3138 3139 3139 3140 3141 3141 3141 3142 3143 3143 3143 3144 3144 3144 3145 3145 3145 3145 3145 3145 3145 3145 3144 3145 3145 3145 3145 3145 3145 3145 3145 3145 3145 3145 3145 3145 3146 3145 3145 3145 3146 3146 3146
3117 3117 3117 3116 3116 3116 3117 3117 3117 3117 3118 3118 3118 3118 3119 3119 3119 3120 3120 3120 3120 3120 3120 3121 3121 3122 3122 3123 3123 3123 3124 3124 3125 3126 3126 3127 3128 3128 3129 3130 3132 3133 3134 3135 3136 3137 3137 3137 3138 3138 3139 3139 3139 3140 3140 3141 3141 3142 3142 3143 3143 3143 3143 3143 3142 3142 3142 3143 3143 3143 3143 3143 3143 3143 3143 3143 3143 3143 3143 3143 3142 3142 3142 3142 3143
3117 3116 3116 3116 3115 3115 3116 3116 3116 3117 3117 3117 3117 3118 3118 3118 3118 3119 3119 3119 3119 3119 3119 3120 3120 3120 3121 3121 3121 3122 3122 3122 3123 3123 3124 3124 3125 3125 3126 3127 3128 3129 3129 3131 3132 3133 3133 3133 3134 3134 3134 3134 3134 3135 3136 3137 3138 3138 3139 3139 3140 3140 3141 3140 3140 3140 3140 3140 3140 3140 3140 3140 3140 3141 3141 3141 3141 3140 3140 3140 3140 3140 3140 3140 3140
3116 3116 3115 3115 3115 3114 3115 3115 3115 3116 3116 3116 3116 3117 3117 3117 3117 3118 3118 3118 3118 3119 3119 3119 3119 3119 3119 3119 3119 3120 3120 3120 3120 3121 3121 3122 3122 3123 3123 3124 3124 3125 3126 3127 3128 3129 3129 3130 3130 3130 3129 3129 3130 3131 3132 3133 3134 3134 3134 3136 3137 3137 3138 3138 3137 3137 3137 3137 3137 3137 3137 3137 3138 3138 3138 3138 3139 3138 3138 3138 3137 3137 3137 3137 3137
3116 3116 3115 3114 3114 3114 3113 3114 3114 3114 3114 3115 3115 3115 3116 3116 3116 3116 3116 3116 3117 3117 3117 3117 3117 3118 3118 3118 3118 3118 3118 3118 3118 3119 3119 3119 3120 3120 3121 3121 3122 3122 3123 3124 3125 3126 3126 3127 3127 3126 3126 3126 3127 3127 3128 3128 3129 3129 3130 3131 3132 3133 3134 3134 3134 3134 3134 3134 3134 3134 3134 3134 3135 3135 3135 3135 3136 3136 3135 3135 3135 3134 3134 3134 3134
3116 3116 3115 3114 3114 3113 3112 3112 3112 3113 3113 3113 3114 3114 3114 3115 3115 3115 3115 3115 3115 3115 3115 3115 3116 3116 3116 3116 3116 3116 3116 3116 3116 3116 3117 3117 3117 3117 3118 3118 3118 3119 3120 3121 3122 3123 3123 3124 3124 3123 3122 3123 3123 3124 3124 3125 3124 3124 3125 3126 3127 3128 3128 3129 3129 3130 3131 3131 3131 3130 3131 3131 3131 3131 3132 3132 3132 3133 3132 3133 3132 3131 3131 3131 3131
3115 3115 3115 3114 3114 3113 3112 3112 3111 3111 3112 3112 3112 3113 3113 3113 3113 3113 3113 3113 3113 3113 3113 3113 3114 3114 3114 3114 3114 3114 3114 3114 3114 3114 3114 3114 3114 3115 3115 3115 3115 3115 3116 3116 3118 3120 3120 3120 3120 3119 3119 3120 3120 3120 3121 3121 3120 3120 3120 3121 3122 3123 3123 3124 3125 3125 3126 3126 3127 3127 3127 3127 3127 3128 3128 3128 3128 3129 3129 3129 3129 3129 3128 3128 3128
3114 3114 3114 3114 3113 3113 3112 3112 3111 3111 3110 3110 3111 3111 3111 3112 3112 3112 3112 3112 3112 3112 3112 3112 3112 3112 3112 3112 3112 3112 3112 3112 3112 3112 3112 3111 3111 3111 3111 3111 3111 3112 3112 3112 3114 3116 3116 3116 3117 3116 3116 3116 3117 3117 3118 3117 3116 3116 3116 3117 3118 3118 3119 3120 3120 3121 3121 3122 3122 3123 3123 3123 3123 3124 3124 3124 3123 3124 3125 3125 3126 3126 3125 3124 3125
3113 3113 3113 3112 3112 3112 3112 3112 3111 3111 3110 3110 3110 3110 3110 3110 3110 3111 3110 3110 3110 3110 3110 3110 3110 3110 3110 3110 3110 3110 3110 3110 3110 3109 3109 3109 3109 3108 3108 3108 3108 3108 3108 3108 3110 3112 3112 3111 3112 3112 3111 3112 3113 3113 3114 3113 3113 3113 3112 3113 3113 3114 3114 3115 3115 3116 3116 3116 3117 3118 3118 3119 3119 3119 3119 3119 3118 3120 3121 3122 3123 3123 3122 3122 3122
3111 3111 3111 3111 3111 3111 3111 3111 3110 3110 3110 3109 3109 3109 3109 3109 3109 3109 3109 3109 3109 3108 3108 3108 3108 3108 3108 3108 3108 3109 3109 3108 3108 3108 3107 3107 3106 3106 3105 3105 3105 3104 3104 3105 3106 3108 3108 3107 3107 3108 3107 3107 3108 3108 3108 3109 3109 3109 3109 3109 3109 3109 3109 3110 3110 3111 3111 3112 3112 3113 3113 3113 3114 3114 3115 3115 3115 3116 3117 3118 3119 3119 3119 3119 3119
3108 3109 3109 3109 3109 3109 3110 3110 3109 3109 3109 3109 3108 3108 3108 3107 3107 3107 3107 3107 3107 3107 3106 3106 3106 3106 3106 3106 3106 3106 3106 3106 3106 3105 3105 3104 3104 3103 3102 3102 3101 3101 3101 3101 3102 3104 3105 3104 3103 3103 3103 3103 3104 3104 3103 3103 3104 3104 3105 3105 3105 3105 3105 3105 3105 3105 3106 3107 3107 3108 3108 3109 3109 3110 3110 3111 3112 3113 3113 3113 3114 3114 3115 3116 3115
3106 3106 3106 3107 3107 3107 3108 3108 3108 3108 3107 3107 3107 3107 3107 3106 3106 3105 3105 3104 3104 3104 3104 3104 3104 3104 3104 3104 3104 3104 3103 3103 3103 3102 3102 3101 3101 3100 3100 3099 3098 3097 3097 3097 3097 3098 3100 3100 3099 3099 3099 3099 3099 3100 3099 3098 3099 3099 3099 3100 3101 3101 3100 3100 3100 3101 3101 3102 3102 3103 3103 3104 3105 3105 3106 3106 3107 3108 3108 3109 3110 3110 3111 3111 3111
3103 3103 3104 3104 3104 3105 3105 3105 3106 3106 3105 3105 3105 3105 3105 3105 3104 3104 3103 3102 3101 3101 3101 3101 3101 3101 3101 3101 3101 3101 3101 3100 3100 3100 3099 3099 3098 3097 3097 3096 3095 3094 3094 3093 3093 3093 3094 3095 3095 3094 3094 3094 3095 3095 3094 3094 3094 3094 3094 3095 3096 3095 3095 3095 3095 3096 3096 3096 3097 3098 3098 3099 3100 3100 3101 3102 3102 3102 3103 3104 3105 3106 3107 3107 3107
3099 3100 3101 3101 3102 3102 3102 3103 3103 3103 3102 3102 3103 3103 3103 3103 3102 3102 3101 3100 3100 3099 3098 3098 3097 3097 3097 3097 3098 3098 3097 3097 3097 3096 3096 3096 3095 3094 3093 3092 3091 3090 3090 3089 3090 3090 3090 3091 3091 3090 3089 3089 3090 3090 3090 3089 3089 3090 3090 3090 3090 3090 3090 3090 3090 3090 3091 3091 3092 3093 3093 3094 3095 3095 3096 3097 3097 3098 3098 3099 3100 3101 3102 3103 3104
3095 3096 3097 3098 3099 3099 3099 3099 3099 3099 3099 3099 3100 3100 3100 3100 3099 3099 3099 3098 3098 3097 3096 3095 3094 3094 3093 3093 3093 3093 3093 3093 3092 3092 3092 3092 3091 3090 3090 3088 3087 3086 3085 3084 3084 3085 3085 3086 3087 3086 3085 3084 3084 3085 3085 3085 3084 3085 3085 3085 3085 3085 3085 3085 3085 3085 3085 3086 3087 3088 3088 3088 3089 3090 3091 3092 3093 3093 3093 3094 3095 3097 3098 3099 3100
3090 3093 3094 3095 3095 3095 3095 3095 3095 3096 3096 3096 3096 3097 3096 3096 3096 3096 3096 3096 3095 3094 3093 3092 3091 3091 3090 3089 3089 3088 3088 3088 3088 3087 3087 3087 3086 3086 3085 3084 3083 3082 3080 3080 3079 3078 3079 3080 3082 3082 3081 3080 3080 3080 3081 3080 3079 3079 3079 3079 3079 3080 3080 3080 3080 3081 3081 3081 3082 3082 3083 3083 3083 3084 3085 3086 3088 3089 3090 3090 3091 3092 3093 3095 3096
3087 3090 3091 3090 3091 3091 3091 3091 3091 3092 3092 3093 3093 3093 3092 3092 3092 3092 3092 3092 3091 3091 3090 3089 3088 3087 3087 3086 3085 3084 3084 3083 3083 3082 3082 3082 3081 3081 3081 3080 3078 3077 3076 3075 3074 3073 3073 3073 3074 3076 3076 3076 3075 3076 3076 3075 3074 3074 3074 3073 3073 3075 3075 3074 3075 3076 3076 3076 3077 3077 3078 3078 3078 3079 3079 3080 3082 3084 3085 3086 3086 3087 3089 3090 3091
3084 3086 3085 3085 3087 3087 3087 3087 3088 3088 3088 3089 3089 3089 3088 3088 3088 3088 3087 3087 3087 3087 3086 3085 3084 3084 3083 3082 3082 3081 3080 3079 3079 3078 3077 3077 3076 3076 3076 3075 3073 3072 3071 3070 3069 3069 3068 3067 3067 3068 3069 3069 3070 3070 3071 3070 3069 3068 3068 3067 3067 3068 3069 3069 3070 3071 3072 3071 3071 3072 3072 3073 3073 3074 3075 3076 3077 3079 3080 3080 3081 3082 3084 3085 3085
3079 3080 3080 3081 3083 3083 3082 3083 3084 3084 3085 3085 3084 3084 3084 3084 3084 3083 3083 3083 3082 3082 3082 3081 3080 3080 3079 3078 3077 3077 3076 3075 3075 3074 3073 3072 3071 3071 3070 3069 3068 3067 3066 3065 3064 3063 3062 3062 3061 3062 3062 3062 3063 3064 3064 3064 3064 3063 3063 3062 3061 3062 3063 3063 3064 3066 3066 3066 3066 3066 3067 3067 3068 3069 3070 3072 3073 3074 3074 3076 3077 3078 3078 3079 3080
3074 3075 3075 3076 3078 3078 3078 3078 3079 3080 3080 3080 3079 3079 3079 3079 3079 3079 3078 3078 3077 3077 3077 3076 3076 3075 3074 3074 3073 3073 3072 3071 3070 3070 3069 3068 3067 3066 3065 3064 3063 3062 3061 3060 3059 3058 3057 3056 3055 3055 3055 3056 3057 3058 3057 3057 3057 3057 3056 3056 3056 3056 3057 3057 3058 3060 3061 3060 3060 3060 3061 3062 3063 3064 3066 3067 3068 3069 3070 3071 3072 3073 3073 3074 3074
3069 3069 3070 3071 3072 3073 3073 3073 3074 3075 3075 3075 3074 3074 3074 3074 3074 3074 3073 3073 3072 3072 3072 3071 3071 3070 3069 3069 3068 3068 3067 3066 3065 3065 3064 3063 3063 3061 3060 3059 3058 3057 3056 3055 3054 3053 3052 3050 3050 3049 3049 3049 3050 3051 3051 3050 3050 3050 3049 3049 3050 3050 3051 3051 3052 3054 3055 3055 3054 3054 3055 3057 3058 3059 3061 3062 3063 3064 3065 3066 3067 3068 3068 3068 3069
3064 3064 3065 3066 3067 3067 3068 3068 3069 3069 3069 3070 3070 3069 3069 3069 3069 3068 3068 3067 3067 3067 3067 3066 3065 3065 3064 3064 3063 3062 3062 3061 3060 3059 3058 3058 3057 3056 3055 3054 3053 3052 3051 3050 3048 3047 3046 3045 3044 3044 3044 3043 3043 3044 3045 3044 3043 3043 3043 3043 3043 3044 3044 3045 3045 3047 3049 3050 3049 3049 3050 3052 3053 3054 3055 3057 3058 3058 3059 3061 3062 3062 3063 3063 3063
3058 3059 3060 3061 3062 3062 3063 3063 3064 3064 3064 3064 3064 3064 3064 3064 3064 3063 3062 3061 3061 3061 3061 3061 3060 3059 3058 3058 3057 3056 3056 3055 3054 3053 3052 3052 3051 3051 3050 3049 3048 3047 3046 3045 3043 3042 3041 3039 3038 3037 3037 3037 3036 3036 3038 3038 3037 3037 3037 3037 3037 3037 3037 3037 3039 3041 3043 3045 3044 3043 3044 3047 3048 3048 3050 3051 3052 3053 3054 3055 3056 3057 3057 3058 3059
3054 3054 3055 3056 3056 3057 3057 3058 3058 3058 3058 3058 3059 3059 3059 3059 3058 3058 3057 3056 3056 3055 3055 3055 3054 3053 3053 3052 3051 3050 3049 3049 3048 3047 3046 3045 3044 3044 3043 3042 3041 3040 3039 3038 3037 3036 3034 3033 3032 3031 3030 3030 3029 3029 3030 3031 3030 3029 3030 3030 3030 3030 3030 3030 3032 3034 3037 3039 3038 3037 3038 3041 3043 3043 3044 3045 3046 3047 3048 3050 3051 3051 3052 3053 3053
3049 3050 3050 3051 3051 3052 3052 3053 3052 3052 3053 3053 3054 3054 3054 3054 3054 3053 3052 3051 3051 3050 3051 3050 3049 3048 3047 3045 3044 3043 3042 3042 3041 3040 3039 3038 3037 3036 3035 3035 3034 3033 3032 3031 3030 3029 3028 3026 3025 3025 3024 3023 3023 3022 3022 3023 3023 3022 3021 3022 3023 3022 3023 3024 3025 3027 3030 3032 3032 3031 3031 3034 3037 3038 3038 3039 3040 3041 3043 3044 3045 3046 3047 3047 3048
3044 3045 3046 3046 3046 3047 3047 3047 3047 3048 3049 3050 3050 3050 3049 3049 3048 3048 3047 3047 3046 3046 3046 3045 3044 3042 3041 3040 3038 3036 3035 3034 3034 3033 3032 3030 3029 3028 3027 3026 3026 3025 3024 3023 3023 3022 3020 3019 3018 3017 3017 3016 3015 3015 3014 3015 3015 3014 3012 3013 3014 3014 3016 3017 3017 3019 3022 3025 3026 3025 3024 3027 3031 3032 3033 3033 3034 3035 3037 3039 3040 3041 3041 3043 3044
3039 3039 3040 3041 3041 3042 3042 3042 3044 3045 3046 3046 3045 3045 3044 3044 3043 3043 3043 3042 3041 3041 3040 3039 3038 3036 3035 3034 3032 3030 3029 3027 3026 3025 3024 3023 3021 3020 3019 3018 3017 3016 3016 3016 3015 3013 3012 3011 3010 3009 3008 3007 3006 3006 3006 3006 3007 3006 3004 3004 3005 3006 3007 3008 3009 3012 3014 3016 3019 3019 3018 3019 3023 3026 3027 3027 3028 3029 3031 3033 3035 3036 3037 3038 3040
3034 3033 3034 3035 3036 3037 3038 3039 3040 3041 3041 3041 3040 3039 3039 3039 3038 3038 3037 3037 3036 3036 3034 3033 3032 3030 3029 3027 3026 3025 3023 3021 3020 3018 3016 3015 3014 3012 3011 3009 3008 3008 3008 3007 3005 3004 3003 3003 3002 3000 2999 2998 2997 2997 2997 2998 2999 2998 2997 2997 2997 2997 2998 2999 3001 3003 3005 3008 3012 3013 3013 3013 3016 3019 3020 3020 3021 3023 3025 3027 3029 3031 3033 3034 3035